Regional Weather Roundup
Issued by NWS

Home | Current Version | Previous Version | Graphics & Text | Print | Product List | Glossary On
Versions: 1 2 3 4 5 6 7 8 9 10 11 12 13 14 15 16 17 18 19 20 21 22 23 24 25 26 27 28 29 30 31 32 33 34 35 36 37 38 39 40 41 42 43 44 45 46 47 48 49 50
000
ASUS43 KMKX 021813
RWRWI

WISCONSIN REGIONAL WEATHER ROUNDUP
NATIONAL WEATHER SERVICE MILWAUKEE/SULLIVAN WI
100 PM CDT TUE JUN 02 2015

NOTE: "FAIR" INDICATES FEW OR NO CLOUDS BELOW 12,000 FEET WITH NO
SIGNIFICANT WEATHER AND/OR OBSTRUCTIONS TO VISIBILITY.

WIZ001-002-006>008-014>016-023>028-021900-
NORTHWEST WISCONSIN

CITY           SKY/WX    TMP DP  RH WIND       PRES   REMARKS
SUPERIOR ARPT  SUNNY     58  43  57 NE7       30.03F
ASHLAND        MOSUNNY   74  46  36 S10G22    30.03F
6HR MIN TEMP:  52; 6HR MAX TEMP:  74;

HAYWARD        SUNNY     72  46  39 S14       30.05F
6HR MIN TEMP:  52; 6HR MAX TEMP:  72;

SIREN          SUNNY     72  49  44 S13G22    30.04S
CUMBERLAND     MOSUNNY   68  52  56 S16       30.07R
RICE LAKE      SUNNY     70  47  44 S12       30.08S
CHETEK         SUNNY     69  52  54 SE16      30.07F
LADYSMITH      SUNNY     68  48  47 S12G18    30.10F
EAU CLAIRE     NOT AVBL
MENOMONIE      SUNNY     71  52  51 S15       30.06F
NEW RICHMOND   SUNNY     70  53  56 S10G20    30.05F
OSCEOLA        SUNNY     72  53  50 S15G21    30.06F
$$

WIZ003>005-009-010-017-018-021900-
NORTH CENTRAL WISCONSIN

CITY           SKY/WX    TMP DP  RH WIND       PRES   REMARKS
MANITOWISH WTR PTSUNNY   66  42  42 S10G20    30.10F
ARBOR VITAE    PTSUNNY   65  37  35 S12G17    30.10F
WOODRUFF       PTSUNNY   65  37  35 S12G17    30.10F
RHINELANDER    MOSUNNY   66  33  29 S13G18    30.12F
6HR MIN TEMP:  45; 6HR MAX TEMP:  66;

EAGLE RIVER    PTSUNNY   66  31  27 SW8       30.11F
LAND O LAKES   PTSUNNY   65  33  29 S10       30.12F
PHILLIPS       SUNNY     67  43  41 S9G16     30.09F
TOMAHAWK       SUNNY     66  41  40 S5        30.13F
MEDFORD        SUNNY     64  43  46 S8        30.12F
MERRILL        SUNNY     66  36  33 S6        30.13F
$$

WIZ029-030-035-036-043>047-021900-
CENTRAL WISCONSIN

CITY           SKY/WX    TMP DP  RH WIND       PRES   REMARKS
WAUSAU         SUNNY     68  40  35 S13       30.10F
6HR MIN TEMP:  46; 6HR MAX TEMP:  68;

MOSINEE        SUNNY     66  39  37 S8        30.14F
MARSHFIELD     SUNNY     68  41  37 SE12      30.11F
6HR MIN TEMP:  48; 6HR MAX TEMP:  68;

STEVENS POINT  SUNNY     65  39  37 S12       30.14F
WAUPACA        MOSUNNY   70  38  30 S8G16     30.15F
WAUTOMA        NOT AVBL
WISC RAPIDS    SUNNY     70  34  26 S9        30.13F
6HR MIN TEMP:  49; 6HR MAX TEMP:  71;

CAMP DOUGLAS   NOT AVBL
$$

WIZ011>013-019>022-031-037>040-048>050-021900-
NORTHEAST WISCONSIN

CITY           SKY/WX    TMP DP  RH WIND       PRES   REMARKS
ANTIGO         MOSUNNY   64  43  46 S9        30.15F
SHAWANO        MOSUNNY   69  42  37 S5        30.15F
OCONTO         MOSUNNY   67  40  38 S9        30.16F
STURGEON BAY   MOSUNNY   64  45  48 S12       30.19F
6HR MIN TEMP:  46; 6HR MAX TEMP:  64;

GREEN BAY      MOSUNNY   70  44  39 SW9       30.15F
6HR MIN TEMP:  48; 6HR MAX TEMP:  70;

MANITOWOC      NOT AVBL
APPLETON       SUNNY     68  37  32 S13G18    30.16F
CLINTONVILLE   MOSUNNY   68  39  34 S7        30.15S
OSHKOSH        SUNNY     70  42  36 SE12      30.14F
6HR MIN TEMP:  50; 6HR MAX TEMP:  70;

$$

WIZ032>034-041-042-053>061-021900-
SOUTHWEST WISCONSIN

CITY           SKY/WX    TMP DP  RH WIND       PRES   REMARKS
LA CROSSE      SUNNY     72  51  47 S9        30.08F
6HR MIN TEMP:  53; 6HR MAX TEMP:  72;

SPARTA         SUNNY     70  43  37 S8        30.11F
VIROQUA        MOSUNNY   68  50  52 SE7       30.12F
BOSCOBEL       PTSUNNY   71  50  47 VRB3      30.11F
6HR MIN TEMP:  48; 6HR MAX TEMP:  72;

PRAIRIE DU CHI PTSUNNY   68  50  52 S3        30.10F
PLATTEVILLE    MOSUNNY   67  50  55 SE9       30.13S
$$

WIZ056-057-062-063-064-067-068-021900-
SOUTH CENTRAL WISCONSIN

CITY           SKY/WX    TMP DP  RH WIND       PRES   REMARKS
REEDSBURG      SUNNY     66  44  43 S7        30.12F
BARABOO/DELLS  SUNNY     67  44  43 SE8       30.13F
LONE ROCK      NOT AVBL
MINERAL POINT  SUNNY     68  43  40 SE6       30.13F
MADISON        MOSUNNY   69  46  43 S13       30.12F
6HR MIN TEMP:  47; 6HR MAX TEMP:  69;

MIDDLETON      SUNNY     68  42  38 SW9       30.13F
WATERTOWN      SUNNY     68  39  34 SE5       30.14F
MONROE         SUNNY     66  45  45 SE7G20    30.13F
JANESVILLE     SUNNY     70  45  40 SE13      30.13F
$$

WIZ051-052-058>065-066-070>072-021900-
SOUTHEAST WISCONSIN

CITY           SKY/WX    TMP DP  RH WIND       PRES   REMARKS
MILWAUKEE      MOSUNNY   62  45  53 SE9       30.17F
6HR MIN TEMP:  50; 6HR MAX TEMP:  62;

WAUKESHA       SUNNY     64  36  34 E7        30.17S
MILWAUKEE/TIMM SUNNY     64  36  34 SE9       30.18S
RACINE         SUNNY     61  47  59 SE8       30.19F
6HR MIN TEMP:  48; 6HR MAX TEMP:  61;

BURLINGTON     SUNNY     67  44  43 E9        30.15F
KENOSHA        SUNNY     63  48  58 E14       30.16F
FOND DU LAC    SUNNY     69  44  40 S8        30.15F
6HR MIN TEMP:  48; 6HR MAX TEMP:  70; 6HR PCP: TRACE;

SHEBOYGAN      SUNNY     65  43  44 SE8       30.17F
6HR MIN TEMP:  46; 6HR MAX TEMP:  66;

WEST BEND      SUNNY     66  34  30 SE12      30.17S
JUNEAU         SUNNY     67  41  39 S8G20     30.16F
$$

LSZ147-162-021900-
LAKE SUPERIOR

STATION/POSITION TIME  TEMP    WIND        PRES    WAVE
                       AIR SEA DIR/SP/G            HT/PER
                 (UTC) (F)     (DEG/KT/KT) (MB)    (FT/S)
W MID LAKE BUOY  1650   43 37  130/  6/  8   N/A     1
DEVILS ISLAND    1700   64     180/  7/ 12   N/A
PORT WING        1700   44      30/ 12/ 13   N/A
SAXON HARBOR     1600   67     200/  8/ 17   N/A
$$

LMZ867-665-643>646-021900-
LAKE MICHIGAN

STATION/POSITION TIME  TEMP    WIND        PRES    WAVE
                       AIR SEA DIR/SP/G            HT/PER
                 (UTC) (F)     (DEG/KT/KT) (MB)    (FT/S)
CHAMBERS ISLAND  1700   60     340/  2/  4   N/A
N MID LAKE BUOY  1650   42 38  170/  6/  6   N/A     0
NORTHPORT PIER   1700   52     160/  9/ 13   N/A
SISTER BAY       1718   62     360/  4/  4   N/A
ALGOMA LAKESHORE 1739          190/  5/  7   N/A
KEWAUNEE LAKESHO 1700   47     160/  9/ 10   N/A
SHEBOYGAN LAKESH 1700   47     140/  8/  9   N/A
PORT WASHINGTON  1600   50      90/  2/  3   N/A
ATWATER BUOY     1700   46      90/  4/  6   N/A
MILWAUKEE LAKESH 1700   46      60/  5/  5   N/A
S MID LAKE BUOY  1650   42 39  120/  6/  8   N/A     1
KENOSHA   LAKESH 1700   51      90/  4/  5   N/A
$$

TC  - TEMPERATURE IN CELSIUS
VSB - VISIBILITY IN STATUTE MILES
WCI - WIND CHILL INDEX
HX  - HEAT INDEX




USA.gov is the U.S. government's official web portal to all federal, state and local government web resources and services.